Other Public Products
Issued by NWS Grand Forks, ND

Home | Current Version | Previous Version | Graphics & Text | Print | Product List | Glossary On
Versions: 1 2 3 4 5 6 7 8 9 10 11 12 13 14 15 16 17 18 19 20 21 22 23 24 25 26 27 28 29 30 31 32 33 34 35 36 37 38 39 40 41 42 43 44 45 46 47 48 49 50
000
FPUS83 KFGF 280831
OPUFGF
PRAIRIE TO PINES WEATHER ROUNDUP
NATIONAL WEATHER SERVICE EASTERN NORTH DAKOTA/GRAND FORKS ND
300 AM CDT FRI APR 28 2017

 **SATELLITE DATA USED TO AUGMENT SKY COVER AT AUTOMATED STATIONS**
 *****  WEATHER ACROSS EASTERN NORTH DAKOTA  *****

CITY           SKY/WX    TMP DP  RH WIND       PRES   REMARKS
GRAND FORKS    CLOUDY    34  29  82 W8        29.86R
GRAND FORKS AF FAIR      28  26  90 NW5       29.86R WCI  23
GRAND CITY NWS NOT AVBL
BUXTON           N/A     31  29  92 NW6         N/A
DEVILS LAKE    FAIR      30  26  85 N10       29.88R WCI  21
FARGO          FAIR      30  26  85 NW8       29.85R WCI  22
WAHPETON ARPT  FAIR      30  27  86 NW8       29.86R WCI  23
$$

 *****  WEATHER ACROSS CENTRAL AND WESTERN NORTH DAKOTA  *****

CITY           SKY/WX    TMP DP  RH WIND       PRES   REMARKS
JAMESTOWN      FAIR      30  27  88 W5        29.87R
BISMARCK       FAIR      30  26  85 S3        29.91R
MINOT          FAIR      29  24  82 NW6       29.91R WCI  23
MINOT AFB      FAIR      27  23  86 W3        29.91R
GARRISON         N/A     26  22  84 CALM      29.90R
WILLISTON      FAIR      31  20  63 CALM      29.90R
DICKINSON      FAIR      28  16  60 E8        29.85R WCI  20
HETTINGER      FAIR      28  22  78 E7        29.85R WCI  21
$$

 *****  OTHER OBSERVATIONS NORTHEAST NORTH DAKOTA  *****

CITY           SKY/WX    TMP DP  RH WIND       PRES   REMARKS
WALHALLA       NOT AVBL
LANGDON        FAIR      25  23  93 NW8       29.87S WCI  16
CAVALIER       FAIR      30  25  80 NW6       29.87R WCI  24
GRAFTON        FAIR      32  30  93 W7        29.88S
CANDO          NOT AVBL
FORT TOTTEN      N/A     35  32  89 N5        29.95S
ROLLA          FAIR      27  19  74 N8        29.89S WCI  18
RUGBY          NOT AVBL
 ***** THE ABOVE OBSERVATIONS ARE NON NWS ARE NOT QUALITY
        CONTROLLED AND MAY MIS-REPORT RAIN FOR SNOW...
$$

 *****  OTHER OBSERVATIONS SOUTHEAST NORTH DAKOTA *****

CITY           SKY/WX    TMP DP  RH WIND       PRES   REMARKS
COOPERSTOWN    FAIR      30  28  93 NW7       29.86R WCI  23
VALLEY CITY    FAIR      27  27 100 W8        29.88R WCI  18
OAKES          NOT AVBL
GWINNER        SUNNY     32  30  93 MISG      29.88S
SHEYENNE NWR     N/A     29  24  81 W2        29.95S
BUFFALO          N/A     29  27  92 CALM        N/A
WYNDMERE         N/A     32  28  86 NW6         N/A
 ***** THE ABOVE OBSERVATIONS ARE NON NWS ARE NOT QUALITY
       CONTROLLED AND MAY MIS-REPORT RAIN FOR SNOW...
$$

  *****  WEATHER ACROSS NORTHERN MINNESOTA  *****

CITY           SKY/WX    TMP DP  RH WIND       PRES   REMARKS
FLAG ISLAND    FLURRIES  30  27  86 NW20G25   29.76R WCI  18
WARROAD        FAIR      28  25  86 NW10      29.79S WCI  19
ROSEAU         CLOUDY    30  27  86 NW10      29.80S WCI  21
HALLOCK        FAIR      32  28  86 NW3       29.85R
THF RVR FALLS  CLOUDY    30  27  88 NW8       29.82R WCI  22
HALSTAD          N/A     29  25  82 N10         N/A  WCI  20
FOSSTON        CLOUDY    27  25  93 NW8       29.81R WCI  18
BAUDETTE       LGT SNOW  29  27  92 NW15      29.74R FOG     WCI  18
WASKISH        CLOUDY    28  25  86 NW8       29.75R WCI  20
CROOKSTON      FAIR      32  30  93 NW9       29.85R WCI  24
$$
  *****  WEATHER ACROSS CENTRAL AND WEST MINNESOTA  *****

CITY           SKY/WX    TMP DP  RH WIND       PRES   REMARKS
BEMIDJI        CLOUDY    27  24  88 W10       29.76R WCI  18
PARK RAPIDS    CLOUDY    28  20  71 NW9       29.77R WCI  19
WADENA         FAIR      28  25  86 NW6       29.79S WCI  22
DETROIT LAKES  FAIR      30  28  93 NW9G16    29.82R WCI  22
MOORHEAD       FAIR      30  27  86 NW7       29.86R WCI  23
FERGUS FALLS   FAIR      30  30 100 NW12      29.85R WCI  21
ELBOW LAKE     FAIR      31  29  92 NW7       29.84R WCI  25
MORRIS MN      FAIR      30  28  93 NW7       29.84R WCI  23
STAPLES        FAIR      27  23  86 NW8       29.79R WCI  18
WHEATON        FAIR      32  27  80 NW8       29.89R WCI  25
$$
  *****  WEATHER ELSEWHERE ACROSS MINNESOTA  *****

CITY           SKY/WX    TMP DP  RH WIND       PRES   REMARKS
DULUTH         CLOUDY    28  23  81 W12       29.67S WCI  18
INTRNTL FALLS  LGT SNOW  27  23  85 NW10      29.69R VSB 3/4 WCI  17
ELY            CLOUDY    25  21  86 W9        29.63S WCI  15
CLOQUET        CLOUDY    28  21  74 W9        29.70S WCI  20
BRAINERD       FAIR      29  22  75 NW12      29.77R WCI  19
HIBBING        CLOUDY    26  22  84 W7        29.68S WCI  18
ALEXANDRIA     CLOUDY    35  27  72 N12       29.80R
SAINT CLOUD    CLOUDY    34  27  75 W7        29.80R
MINNEAPOLIS    CLOUDY    36  27  69 W8        29.82R
$$

  *****  WEATHER ACROSS SOUTH DAKOTA  *****

CITY           SKY/WX    TMP DP  RH WIND       PRES   REMARKS
SIOUX FALLS    FAIR      31  27  85 E5        29.84F
BROOKINGS      FAIR      28  26  92 NE3       29.85
WATERTOWN      FAIR      29  25  85 CALM      29.84R
HURON          FAIR      25  23  92 CALM      29.85R
SISSETON         N/A     32  30  92 N12       29.86R WCI  23
ABERDEEN       FAIR      29  25  85 CALM      29.88R
MITCHELL       FAIR      31  27  85 CALM      29.84F
PIERRE         FAIR      30  25  81 NE8       29.81R WCI  22
MOBRIDGE       FAIR      35  25  66 E15       29.83R
RAPID CITY     CLOUDY    38  31  76 NE3       29.75F
$$

  *****  SOME WEATHER IN NEARBY STATES *****

CITY           SKY/WX    TMP DP  RH WIND       PRES   REMARKS
GLASGOW MT     CLOUDY    42  16  34 E13       29.85R
GREAT FALLS MT CLOUDY    37  35  92 SW7       29.87S
CHEYENNE WY    FAIR      32  25  75 W7        29.61F
SCOTTSBLUFF NE CLOUDY    40  37  89 E16       29.60S
OMAHA NE       CLOUDY    46  34  62 E9        29.79S
DES MOINES IA  CLOUDY    42  31  64 NE7       29.85S
DAVENPORT IA   FAIR      38  34  85 N6        29.87S
CHICAGO IL     FAIR      41  36  82 W5        29.87S
EAU CLAIRE WI  CLOUDY    34  25  69 W9        29.79R
LA CROSSE WI   CLOUDY    38  27  64 W9        29.85R
$$

  *****  SOME NATIONAL WEATHER *****

CITY           SKY/WX    TMP DP  RH WIND       PRES   REMARKS
LA GUARDIA NY  FOG       55  54  96 NE7       29.87R VSB 1/4
RALEIGH NC     LGT RAIN  72  65  78 SW8       29.95R
ATLANTA GA     CLOUDY    68  67  96 SW6       29.94R FOG
NEW ORLEANS LA MOCLDY    77  74  90 S14       29.76S
OKLAHOMA CITY  MOCLDY    58  51  78 SE17G30   29.56F
ALBUQUERQUE NM FAIR      50  26  39 N12       29.76S
SALT LAKE CITY CLOUDY    41  30  65 CALM      29.86F
LOS ANGELES CA FAIR      73  33  23 N18G28    29.73S
BOISE ID       MOCLDY    38  30  73 NW9       29.98S
SEATTLE WA     CLOUDY    47  41  80 S6        30.22R
$$

*** WEATHER ACROSS MANITOBA...SASKATCHEWAN AND ONTARIO ***
                ***ONTARIO***

CITY           SKY/WX    TMP DP  RH WIND       PRES   REMARKS
GERALDTON      LGT SNOW  25  23  93 W13       29.44R FOG     WCI  13
THUNDER BAY    CLOUDY    25  21  86 W8        29.58R WCI  16
SIOUX LOOKOUT  LGT SNOW  25  21  86 NW14      29.58S DRFTSNOWWCI  13
TORONTO        MOCLDY    52  41  66 W14       29.86R
BIG TROUT LK   CLOUDY    19  14  79 N10G23    29.61F WCI   8
PICKLE LAKE    NOT AVBL
DRYDEN         LGT SNOW  25  23  93 NW7G18    29.62S WCI  17
KENORA         LGT SNOW  27  25  93 NW10G20   29.72R VSB 3/4 WCI  17
$$
                *** MANITOBA***

CITY           SKY/WX    TMP DP  RH WIND       PRES   REMARKS
BRANDON        CLEAR     27  18  69 N10       29.92R WCI  17
DAUPHIN        CLEAR     23  14  68 W9        29.95S WCI  13
ISLAND LAKE    MOCLDY    28  12  50 N9        29.87S WCI  20
PILOT MOUND      N/A     25  16  68 NW8         N/A  WCI  16
THE PAS        CLEAR     23  14  68 N2        29.98R
THOMPSON       MOCLDY    23   7  50 N2        30.00S
WINNIPEG       PTCLDY    25  21  86 NW8       29.85S WCI  16
LYNN LAKE      CLEAR     21  12  68 W2        30.00S
CHURCHILL      CLEAR     10   9  92 S9        30.06S WCI  -2
GILLAM         PTCLDY    16   9  73 N6        30.00F WCI   7
$$
                ***SASKATCHEWAN***

CITY           SKY/WX    TMP DP  RH WIND       PRES   REMARKS
ESTEVAN        PTCLDY    30  27  86 SE7       29.92R WCI  23
KINDERSLEY     PTCLDY    25  23  93 SW8       29.88R WCI  16
LLOYDMINSTER   LGT RAIN  34  34 100 MISG      29.94S
PRINCE ALBERT  CLOUDY    34  19  55 E5        29.95S
REGINA         MOCLDY    36  18  48 SE18      29.91R
YORKTON        PTCLDY    27  21  80 CALM      29.95R


USA.gov is the U.S. government's official web portal to all federal, state and local government web resources and services.